Location: *
(38.9800°N, 16.0500°E)
Time: 05:34:58
(UTC+00:00)

ALOS - Pass Details

Date: 07 April 2020
Orbit: 683 x 686 km, 97.8° (Epoch: 05 June)

Event Time Altitude Azimuth Distance (km) Brightness Sun altitude
Rises 03:46:13 0° 15° (NNE) 3,060 6.1 -9.3°
Reaches altitude 10° 03:48:29 10° 19° (NNE) 2,140 5.3 -8.8°
Maximum altitude 03:53:08 64° 100° (E) 762 2.8 -8.0°
Drops below altitude 10° 03:57:45 10° 183° (S) 2,123 4.6 -7.1°
Sets 04:00:00 0° 186° (S) 3,034 5.4 -6.7°
